Volver al catálogo

STARLINK-34490

ActivoComunicacionesVLEO
NORAD 64478·PAYLOAD·🇺🇸 United States

Lanzado Jun 23, 2025 desde Cape Canaveral Space Force Station

Loading…

Próximos Pases (próximas 24 horas)

TLE

ActualizadoSource: CelesTrak SupGP

Época: Sep 14, 2026, 21:32 UTC

1 64478C 25133G   26257.89770833 -.00004256  00000+0 -12582-3 0  2576
2 64478  53.1572 315.6094 0001185  85.0850 145.0919 15.34375510    17

Sigue STARLINK-34490 en tiempo real con AllMySat

Download on the App Store